www.pogodaiklimat.ru

Погода и климат >> Архив погоды >> Украина >> Борисполь


ПОГОДА в Борисполе

  • Прогноз погоды в Борисполе
  • Монитор погоды в Борисполе

АРХИВ ПОГОДЫ в Борисполе

Время (UTC), дата Ветер
(напр.,м/с)
 
Видим.   Явления Облачность Т
(С)
Тd
(С)
f
(%)
Тe
(С)
Тes
(С)
Комфортность P
(гПа)
Po
(гПа)
Тmin
(С)
Tmax
(С)
R
(мм)
R24
(мм)
S
(см)
21 11.09 штиль 0 10 км 8/0
[Ci fib]
+13.5 +8.0 58 +13 +13 1027.3 1012.0
00 12.09 штиль 0 10 км 4/0
[Ci fib]
+11.6 +7.9 76 +11 +11 1027.5 1012.0
03 12.09 999 1 10 км 3/0
[Ci fib]
+9.8 +6.1 71 +9 +9 1027.8 1012.0
06 12.09 штиль 0 10 км 9/0
[Ci fib]
+18.5 +7.7 49 +19 +22 1027.9 1013.3 +9.5
09 12.09 ЮЗ 2 10 км 3/0
[Ci fib]
+26.6 +3.6 23 +25 +36 комфорт 1027.4 1014.7
12 12.09 ЮЗ 3 10 км 8/0
[Ci fib]
+28.1 +2.5 20 +26 +33 жарко 1026.1 1013.3
15 12.09 Ю 2 10 км 8/0
[Ci fib]
+27.4 +2.5 20 +26 +26 жарко 1025.2 1012.0
18 12.09 штиль 0 10 км 6/0
[Ci fib]
+17.5 +7.3 51 +18 +18 1026.0 1011.4 +28.9
21 12.09 Ю 1 10 км 8/0
[Ci fib]
+14.0 +7.5 58 +14 +14 1025.9 1012.0
00 13.09 Ю 1 10 км 4/0
[Ci fib]
+12.8 +8.4 66 +12 +12 1025.4 1010.7
03 13.09 Ю 2 10 км ясно +10.5 +7.4 81 +10 +10 1025.1 1010.7
06 13.09 З 1 10 км 1/0
[Ci fib]
+17.8 +7.2 50 +19 +22 1025.2 1010.6 +10.1
09 13.09 ЮЗ 3 10 км 3/0
[Ci fib]
+26.6 +7.1 30 +26 +35 жарко 1023.9 1010.7
12 13.09 ЮЗ 4 10 км 4/3 1000 м
[Cu hum Ci fib]
+29.1 +4.9 23 +27 +32 жарко 1021.7 1008.0
15 13.09 З 3 10 км 3/3 1000 м
[Cu hum Ci fib]
+27.3 +6.6 30 +27 +27 жарко 1020.7 1008.0
18 13.09 СЗ 2 10 км 3/0
[Ac trans]
+22.2 +9.6 45 +24 +24 комфорт 1021.7 1007.4 +29.2
21 13.09 З 2 10 км ясно +18.9 +9.2 63 +19 +19 1021.9 1008.0
00 14.09 ЮЗ 2 10 км 1/0
[Ac trans]
+15.2 +9.8 72 +15 +15 1021.4 1006.7
03 14.09 ЮЗ 3 10 км 10/0
[Ac und]
+16.0 +10.1 68 +17 +17 1020.8 1006.7
06 14.09 СЗ 3 10 км 10/0
[Ac und]
+17.7 +10.2 61 +18 +18 1021.6 1007.1 +14.6
09 14.09 СЗ 7 10 км {ливн. осадки} 8/0
[Ac trans Ci fib]
+17.7 +6.8 52 +17 +20 1023.2 1009.3
12 14.09 СЗ 4 10 км {ливн. осадки} 5/3 1000 м
[Cu hum Ci fib]
+20.7 +4.1 34 +21 +25 комфорт 1022.9 1008.5
15 14.09 СЗ 6 10 км 3/0
[Ci fib]
+20.0 +1.9 28 +20 +21 1023.0 1009.3
18 14.09 штиль 0 10 км ясно +14.4 +2.1 43 +14 +14 1024.9 1010.1 +21.1 0.0
21 14.09 З 2 10 км ясно +9.8 +2.8 57 +9 +9 1025.7 1010.7
00 15.09 З 3 10 км 8/0
[Ci fib]
+10.4 +3.5 76 +10 +10 1025.2 1010.7
03 15.09 З 2 10 км 3/0
[Ci fib]
+8.4 +4.3 81 +8 +8 1025.5 1010.7
06 15.09 СЗ 1 10 км ясно +13.3 +5.9 61 +14 +17 1025.7 1010.9 +7.9
09 15.09 З 5 н/о 42 1009.3
12 15.09 З 5 10 км 9/5 600 м
[Cu hum Ci fib]
+19.4 +3.2 30 +20 +22 1021.9 1008.0
15 15.09 З 4 10 км 9/0
[Ci sp]
+19.8 +2.6 32 +20 +21 1019.2 1005.3
18 15.09 штиль 0 10 км 5/0
[Ci fib]
+15.4 +3.0 43 +15 +15 1017.8 1003.2 +20.9
21 15.09 ЮЗ 4 10 км 5/0
[Ci fib]
+15.0 +2.4 47 +15 +15 1015.9 1001.3
00 16.09 ЮЗ 4 10 км ясно +11.5 +3.3 44 +11 +11 1014.9 1000.0
03 16.09 ЮЗ 4 10 км 3/0
[Ci fib]
+11.6 +3.2 58 +11 +11 1012.7 997.3
06 16.09 З 3 10 км 8/0
[Ac trans Ci fib]
+16.0 +5.6 50 +16 +17 1011.7 997.2 +10.3
09 16.09 З 5 10 км 9/0
[Ac As]
+21.2 +7.2 43 +22 +25 комфорт 1010.6 997.3
12 16.09 З 7 10 км 3/0
[Ac lent Cc]
+23.5 +3.4 29 +23 +25 комфорт 1008.8 994.7
15 16.09 З 5 н/о 33 994.7
18 16.09 З 1 10 км 9/0
[Ac trans]
+18.6 +6.6 45 +20 +20 1008.9 994.6 +24.1
21 16.09 СЗ 3 н/о 48 994.7
00 17.09 З 2 10 км 9/0
[Ac trans]
+13.5 +5.7 58 +13 +13 1009.4 994.7
03 17.09 З 2 н/о 62 994.7
06 17.09 З 2 10 км 4/0
[Ci sp]
+13.4 +5.3 58 +13 +15 1009.5 994.9 +12.0
09 17.09 З 7 н/о 39 994.7
12 17.09 З 5 10 км 3/3 1000 м
[Cu hum]
+18.8 +1.0 32 +19 +22 1007.7 994.7
15 17.09 З 4 н/о 30 993.3
18 17.09 штиль 0 10 км 3/0
[Ac trans]
+10.8 +2.2 55 +11 +11 1006.7 992.0 +19.0
21 17.09 ЮЗ 3 н/о 51 990.7
00 18.09 ЮЗ 4 10 км ясно +12.2 +3.2 58 +12 +12 1003.8 989.3
03 18.09 ЮЗ 3 2 балла 76 988.0
06 18.09 З 9
{16}
10 км 8/8 1000 м
[Sc]
+11.5 +1.4 50 +8 +9 1003.9 989.3 +10.4
09 18.09 З 7
{12}
7 баллов 47 990.7
12 18.09 З 6 10 км в посл. час ливневой дождь 8/4 1000 м
[Cu med, cong Ac trans]
+12.3 +4.7 60 +10 +11 1006.4 991.8
15 18.09 З 6 5 баллов 58 993.3

 

Местоположение метеостанции Борисполь (Киевская область, Украина): широта 50.33 долгота 30.97 высота над уровнем моря 122 м.

В архиве по умолчанию представлена погода в Борисполе за последнюю неделю. Архивные данные за месяц целиком и за предыдущие месяцы, начиная с января 2011 года, Вы можете получить, выбрав интересующий диапазон дат из раскрывающегося списка и нажав кнопку "Ввод!".


*Определитесь, кто Вы:
робот инопланетянин человек

Внимание! Время в таблицах - всемирное. Для получения местного времени необходимо прибавить поправку, которая равна 2 ч.

Смотрите также архив погоды в соседних городах и на ближайших метеорологических станциях:

Погода в Барышевке (Киевская область, Украина) (26 км)
Погода в Киеве (город Киев, Украина) (29 км)
Погода в Вышгороде (Киевская область, Украина) (44 км)
Погода в Яготине (Киевская область, Украина) (60 км)
Погода в Остере (Черниговская область, Украина) (69 км)
Погода в Мироновке (Киевская область, Украина) (73 км)
Погода в Каневе (Черкасская область, Украина) (77 км)
Погода в Фастове (Киевская область, Украина) (80 км)
Погода в Белой Церкви (Киевская область, Украина) (89 км)
Погода в Нежине (Черниговская область, Украина) (103 км)

Пояснения к столбцам:

Ветер - указаны скорость ветра в м/с - средняя за 10 мин, порывы в срок и между сроками (в фигурных скобках) и направление, откуда дует ветер: С - северный, СВ - северо-восточный, В - восточный, ЮВ - юго-восточный, Ю - южный, ЮЗ - юго-западный, З - западный, СЗ - северо-западный.
Видимость - горизонтальная дальность видимости в метрах или километрах. При видимости от 1 до 10 км при отсутствии осадков обычно наблюдается дымка, при ухудшении видимости до 1 км и менее - туман. В сухую погоду видимость может ухудшаться дымом, пылью или мглою.
Явления - указаны атмосферные явления, наблюдавшиеся в срок или в последний час перед сроком; фигурными скобками обозначены явления, наблюдавшиеся между сроками (за 1-3 часа до срока); квадратными скобками обозначены град или гололедные отложения с указанием их диаметра в мм.
Облачность - указаны через наклонную черту общая и нижняя облачность в баллах и высота нижней границы облаков в метрах; квадратными скобками обозначены формы облаков: Ci - перистые, Cs - перисто-слоистые, Cc - перисто-кучевые, Ac - высококучевые, As - высокослоистые, Sc - слоисто-кучевые, Ns - слоисто-дождевые, Cu - кучевые, Cb - кучево-дождевые. Подробнее классификацию облаков см. в Атласе облаков (PDF).
T - Температура воздуха - температура, измеренная на высоте 2 м над землей.
Td - Температура точки росы - температура, при понижении до которой содержащийся в воздухе водяной пар достигнет насыщения.
f - Относительная влажность воздуха - влажноcть воздуха, измеренная на высоте 2 м над землей.
Te - Эффективная температура - температура, которую ощущает одетый по сезону человек в тени. Характеристика душности погоды. При расчете учитывается влияние влажности воздуха и скорости ветра на теплоощущения человека.
Tes - Эффективная температура на солнце - температура, которую ощущает человек, с поправкой на солнечный нагрев. Характеристика знойности погоды. Зависит от высоты солнца над горизонтом, облачности и скорости ветра. Ночью, в пасмурную погоду, а также при ветре 12 м/с и более поправка равна нулю.
P - Атмосферное давление - приведенное к уровню моря атмосферное давление.
Po - Атмосферное давление - измеренное на уровне метеостанции атмосферное давление.
Tmin - Минимальная температура - минимум температуры воздуха на высоте 2 м над землей.
Tmax - Максимальная температура - максимум температуры воздуха на высоте 2 м над землей.
R - Количество осадков - Количество выпавших осадков за период времени, мм. При наведении курсора мыши на число - период времени, за который выпало указанное количество осадков.
R24 - Количество осадков - Количество выпавших осадков за 24 часа, мм.
S - Снежный покров - Высота снежного покрова, см. При наведении курсора мыши на число - состояние снежного покрова и степень покрытия местности в баллах.